This is the latest recevied weather packets stored in our database for station/object N2MLB-WX. If no packets are shown the sender has not sent any weather packets the latest 10 day(s).
| Time | Temp. | Humidity | Pressure | Rain* | Wind** | Luminosity | Snow |
|---|---|---|---|---|---|---|---|
| 1777728740 | 8.33° C | 58% | 1012 hPa | 0 mm | - | 82 W/m² | - |
| 1777728446 | 7.22° C | 59% | 1012 hPa | 0 mm | - | 78 W/m² | - |
| 1777728140 | 7.22° C | 59% | 1012 hPa | 0 mm | - | 75 W/m² | - |
| 1777727839 | 7.22° C | 60% | 1012 hPa | 0 mm | - | 71 W/m² | - |
| 1777727539 | 6.11° C | 59% | 1012 hPa | 0 mm | - | 70 W/m² | - |
| 1777727246 | 6.67° C | 56% | 1012 hPa | 0 mm | - | 66 W/m² | - |
| 1777726940 | 7.78° C | 55% | 1012 hPa | 0 mm | - | 63 W/m² | - |
| 1777726639 | 6.67° C | 56% | 1011 hPa | 0 mm | - | 60 W/m² | - |
| 1777726340 | 6.67° C | 57% | 1011 hPa | 0 mm | - | 57 W/m² | - |
| 1777726039 | 6.67° C | 55% | 1011 hPa | 0 mm | - | 53 W/m² | - |
| 1777725741 | 6.67° C | 57% | 1011 hPa | 0 mm | - | 50 W/m² | - |
| 1777725439 | 7.22° C | 59% | 1011 hPa | 0 mm | - | 47 W/m² | - |
| 1777725139 | 6.67° C | 57% | 1011 hPa | 0 mm | - | 44 W/m² | - |
| 1777724839 | 7.22° C | 57% | 1011 hPa | 0 mm | - | 42 W/m² | - |
| 1777724539 | 6.67° C | 60% | 1011 hPa | 0 mm | - | 40 W/m² | - |
| 1777724241 | 6.67° C | 59% | 1011 hPa | 0 mm | - | 40 W/m² | - |
| 1777723940 | 6.11° C | 58% | 1011 hPa | 0 mm | - | 36 W/m² | - |
| 1777723640 | 7.22° C | 57% | 1011 hPa | 0 mm | - | 31 W/m² | - |
| 1777723339 | 6.67° C | 61% | 1011 hPa | 0 mm | - | 28 W/m² | - |
| 1777723040 | 6.67° C | 64% | 1011 hPa | 0 mm | - | 27 W/m² | - |
| 1777722739 | 6.11° C | 64% | 1011 hPa | 0 mm | - | 25 W/m² | - |
| 1777722440 | 5° C | 67% | 1011 hPa | 0 mm | - | 22 W/m² | - |
| 1777722141 | 4.44° C | 69% | 1011 hPa | 0 mm | - | 14 W/m² | - |
| 1777721840 | 4.44° C | 71% | 1011 hPa | 0 mm | - | 13 W/m² | - |
| 1777721540 | 3.89° C | 71% | 1011 hPa | 0 mm | - | 12 W/m² | - |
* Rain latest hour (hover to see other rain measurements)
** Current wind speed in m/s (hover to see current wind gust speed)